sat.trackr.live / text

‹ back to catalog

FLOCK 4BE-27

NORAD 60513 · 2024-149AX

PAYLOAD ACTIVE UNKNOWN

§ Identity

Operator
Country
US
Launch date
2024-08-16
Launch site
AFWTR
Launch vehicle
Mass (kg)
RCS (m²)

Purposes: earth_obs

External: N2YO · Heavens-Above · Gunter

§ Orbital elements

Epoch: 2026-09-19T12:15:06.651360Z

Period
93.76 min
Inclination
97.3768°
Eccentricity
0.0003222
Mean motion
15.35909575 rev/d
Perigee alt
456.0 km
Apogee alt
460.4 km
Semi-major
6,836.4 km
B*
2.0898e-4
RAAN
344.4755°
Arg perigee
348.3549°
Mean anomaly
11.7620°
Rev number
11,661

§ Raw data

FLOCK 4BE-271 60513U 24149AX  26262.51049365  .00007223  00000+0  20898-3 0  99992 60513  97.3768 344.4755 0003222 348.3549  11.7620 15.35909575116615

JSON: /api/v1/satellites/60513 · /tle

For live sub-satellite position, see the globe view (requires WebGL).

§ Visibility from observer

Set your observer location to see the next 7 days of passes ≥ 10°. The values pass through the URL so the page stays shareable.

No JS? Fill the form by hand. The geolocation button needs JavaScript.